| time (UTC) | temp F | wind direction | speed MPH | gust MPH | rain 1hr in | rain 24hr in | rain mn in | humidity % | barometer mb |
| 20260510094616 | 52 | 225 | 5.0 | 9.0 | 0.00 | 0.06 | 0.06 | 89 | 1007.0 |
| 20260510094116 | 52 | 225 | 5.0 | 7.0 | 0.00 | 0.06 | 0.06 | 89 | 1007.0 |
| 20260510093636 | 52 | 248 | 4.0 | 9.0 | 0.00 | 0.06 | 0.06 | 89 | 1006.9 |
| 20260510093116 | 52 | 225 | 1.0 | 5.0 | 0.00 | 0.06 | 0.06 | 89 | 1006.8 |
| 20260510092616 | 52 | 225 | 3.0 | 5.0 | 0.00 | 0.06 | 0.06 | 89 | 1006.8 |
| 20260510092136 | 52 | 248 | 4.0 | 5.0 | 0.00 | 0.06 | 0.06 | 89 | 1006.6 |
| 20260510091616 | 52 | 203 | 3.0 | 6.0 | 0.00 | 0.06 | 0.06 | 89 | 1006.6 |
| 20260510091137 | 52 | 225 | 4.0 | 6.0 | 0.00 | 0.06 | 0.06 | 89 | 1006.5 |
| 20260510090616 | 52 | 203 | 3.0 | 6.0 | 0.00 | 0.06 | 0.06 | 89 | 1006.4 |
| 20260510090116 | 52 | 203 | 4.0 | 8.0 | 0.00 | 0.06 | 0.06 | 89 | 1006.4 |
| 20260510085616 | 52 | 225 | 1.0 | 3.0 | 0.00 | 0.06 | 0.06 | 89 | 1006.4 |
| 20260510085116 | 52 | 203 | 3.0 | 4.0 | 0.00 | 0.06 | 0.06 | 89 | 1006.4 |
| 20260510084616 | 52 | 248 | 1.0 | 2.0 | 0.00 | 0.06 | 0.06 | 89 | 1006.2 |
| 20260510084116 | 52 | 203 | 1.0 | 4.0 | 0.00 | 0.06 | 0.06 | 89 | 1006.2 |
| 20260510083616 | 52 | 225 | 4.0 | 6.0 | 0.00 | 0.06 | 0.06 | 89 | 1006.2 |
| 20260510083116 | 52 | 203 | 2.0 | 5.0 | 0.00 | 0.06 | 0.06 | 89 | 1006.2 |
| 20260510082616 | 52 | 180 | 2.0 | 3.0 | 0.00 | 0.06 | 0.06 | 89 | 1006.2 |
| 20260510082116 | 52 | 203 | 3.0 | 6.0 | 0.00 | 0.06 | 0.06 | 89 | 1006.2 |
| 20260510081616 | 52 | 203 | 5.0 | 8.0 | 0.00 | 0.06 | 0.06 | 89 | 1006.2 |
| 20260510081116 | 52 | 180 | 3.0 | 6.0 | 0.00 | 0.06 | 0.06 | 89 | 1006.2 |
| 20260510080617 | 52 | 203 | 2.0 | 4.0 | 0.00 | 0.06 | 0.06 | 89 | 1006.2 |
| 20260510080116 | 52 | 203 | 2.0 | 5.0 | 0.00 | 0.06 | 0.06 | 89 | 1006.1 |
| 20260510075656 | 52 | 203 | 4.0 | 8.0 | 0.00 | 0.06 | 0.06 | 89 | 1006.1 |
| 20260510075116 | 52 | 203 | 4.0 | 7.0 | 0.00 | 0.06 | 0.06 | 90 | 1006.1 |
| 20260510074616 | 52 | 203 | 2.0 | 6.0 | 0.00 | 0.06 | 0.06 | 90 | 1005.9 |
| 20260510074116 | 52 | 180 | 4.0 | 7.0 | 0.00 | 0.06 | 0.06 | 90 | 1005.9 |
| 20260510073636 | 52 | 180 | 3.0 | 6.0 | 0.00 | 0.06 | 0.06 | 90 | 1005.8 |
| 20260510073117 | 52 | 203 | 1.0 | 3.0 | 0.00 | 0.06 | 0.06 | 90 | 1005.8 |
| 20260510072616 | 52 | 225 | 3.0 | 4.0 | 0.00 | 0.06 | 0.06 | 91 | 1005.8 |
| 20260510072136 | 52 | 203 | 5.0 | 8.0 | 0.00 | 0.06 | 0.06 | 91 | 1005.8 |
| 20260510071637 | 52 | 203 | 2.0 | 5.0 | 0.00 | 0.06 | 0.06 | 91 | 1005.8 |
| 20260510071115 | 52 | 180 | 4.0 | 7.0 | 0.00 | 0.06 | 0.06 | 91 | 1005.8 |
| 20260510070616 | 52 | 135 | 3.0 | 7.0 | 0.00 | 0.06 | 0.06 | 91 | 1005.8 |
| 20260510070115 | 52 | 158 | 2.0 | 6.0 | 0.00 | 0.06 | 0.06 | 91 | 1005.8 |
| 20260510065637 | 52 | 135 | 2.0 | 5.0 | 0.00 | 0.06 | 0.06 | 91 | 1005.7 |
| 20260510065136 | 52 | 203 | 3.0 | 5.0 | 0.01 | 0.06 | 0.06 | 91 | 1005.7 |
| 20260510064616 | 52 | 158 | 2.0 | 4.0 | 0.01 | 0.06 | 0.06 | 91 | 1005.7 |
| 20260510064115 | 52 | 180 | 3.0 | 6.0 | 0.02 | 0.06 | 0.06 | 91 | 1005.7 |
| 20260510063636 | 52 | 203 | 1.0 | 3.0 | 0.02 | 0.06 | 0.06 | 91 | 1005.7 |
| 20260510063116 | 52 | 135 | 2.0 | 6.0 | 0.03 | 0.06 | 0.06 | 91 | 1005.7 |
| 20260510062616 | 52 | 135 | 4.0 | 6.0 | 0.03 | 0.06 | 0.06 | 91 | 1005.6 |
| 20260510062118 | 52 | 203 | 3.0 | 8.0 | 0.04 | 0.06 | 0.06 | 91 | 1005.5 |
| 20260510061617 | 52 | 158 | 4.0 | 8.0 | 0.04 | 0.06 | 0.06 | 90 | 1005.6 |
| 20260510061118 | 52 | 158 | 3.0 | 6.0 | 0.05 | 0.06 | 0.06 | 90 | 1005.4 |
| 20260510060618 | 52 | 158 | 1.0 | 2.0 | 0.06 | 0.06 | 0.06 | 90 | 1005.3 |
| 20260510060138 | 52 | 180 | 3.0 | 6.0 | 0.06 | 0.06 | 0.06 | 90 | 1005.4 |
| 20260510055618 | 52 | 158 | 4.0 | 7.0 | 0.06 | 0.06 | 0.06 | 89 | 1005.3 |
| 20260510055118 | 52 | 158 | 3.0 | 8.0 | 0.06 | 0.06 | 0.06 | 89 | 1005.4 |
| 20260510054617 | 52 | 180 | 2.0 | 5.0 | 0.06 | 0.06 | 0.06 | 89 | 1005.8 |
| 20260510054118 | 52 | 180 | 3.0 | 8.0 | 0.05 | 0.05 | 0.05 | 89 | 1005.8 |
| 20260510053617 | 52 | 158 | 3.0 | 5.0 | 0.05 | 0.05 | 0.05 | 88 | 1005.9 |
| 20260510053138 | 52 | 203 | 4.0 | 9.0 | 0.03 | 0.03 | 0.03 | 88 | 1006.1 |
| 20260510052617 | 52 | 180 | 3.0 | 7.0 | 0.03 | 0.03 | 0.03 | 88 | 1005.9 |
| 20260510052118 | 52 | 158 | 5.0 | 11.0 | 0.02 | 0.02 | 0.02 | 87 | 1006.1 |
| 20260510051617 | 52 | 180 | 7.0 | 10.0 | 0.02 | 0.02 | 0.02 | 87 | 1006.0 |
| 20260510051118 | 52 | 180 | 2.0 | 5.0 | 0.02 | 0.02 | 0.02 | 86 | 1005.9 |
| 20260510050617 | 52 | 158 | 3.0 | 6.0 | 0.01 | 0.01 | 0.01 | 86 | 1006.0 |
| 20260510050118 | 52 | 203 | 3.0 | 5.0 | 0.01 | 0.01 | 0.01 | 85 | 1006.0 |
| 20260510045617 | 53 | 203 | 7.0 | 14.0 | 0.00 | 0.00 | 0.00 | 85 | 1005.9 |
| 20260510045118 | 53 | 158 | 5.0 | 6.0 | 0.00 | 0.00 | 0.00 | 84 | 1005.8 |
| 20260510044618 | 53 | 135 | 5.0 | 8.0 | 0.00 | 0.00 | 0.00 | 84 | 1005.7 |
| 20260510044117 | 53 | 180 | 7.0 | 11.0 | 0.00 | 0.00 | 0.00 | 84 | 1005.7 |
| 20260510043617 | 53 | 135 | 3.0 | 7.0 | 0.00 | 0.00 | 0.00 | 84 | 1005.6 |
| 20260510043117 | 53 | 180 | 4.0 | 11.0 | 0.00 | 0.00 | 0.00 | 83 | 1005.6 |
| 20260510042617 | 53 | 158 | 5.0 | 10.0 | 0.00 | 0.00 | 0.00 | 83 | 1005.6 |
| 20260510042117 | 53 | 180 | 3.0 | 5.0 | 0.00 | 0.00 | 0.00 | 83 | 1005.5 |
| 20260510041617 | 53 | 158 | 5.0 | 12.0 | 0.00 | 0.00 | 0.00 | 83 | 1005.5 |
| 20260510041137 | 53 | 158 | 5.0 | 11.0 | 0.00 | 0.00 | 0.00 | 83 | 1005.4 |
| 20260510040637 | 53 | 158 | 4.0 | 10.0 | 0.00 | 0.00 | 0.00 | 83 | 1005.4 |
| 20260510040118 | 53 | 180 | 4.0 | 10.0 | 0.00 | 0.00 | 0.00 | 83 | 1005.3 |
| 20260510035638 | 53 | 135 | 4.0 | 10.0 | 0.00 | 0.00 | 0.00 | 83 | 1005.3 |
| 20260510035117 | 53 | 158 | 5.0 | 8.0 | 0.00 | 0.00 | 0.00 | 84 | 1005.4 |
| 20260510034639 | 53 | 158 | 5.0 | 10.0 | 0.00 | 0.00 | 0.00 | 83 | 1005.4 |
| 20260510034118 | 53 | 135 | 4.0 | 8.0 | 0.00 | 0.00 | 0.00 | 84 | 1005.4 |
| 20260510033618 | 53 | 135 | 4.0 | 7.0 | 0.00 | 0.00 | 0.00 | 84 | 1005.4 |
| 20260510033118 | 53 | 135 | 6.0 | 10.0 | 0.00 | 0.00 | 0.00 | 84 | 1005.4 |
| 20260510032617 | 53 | 135 | 7.0 | 13.0 | 0.00 | 0.00 | 0.00 | 84 | 1005.5 |
| 20260510032118 | 52 | 135 | 3.0 | 6.0 | 0.00 | 0.00 | 0.00 | 84 | 1005.7 |
| 20260510031617 | 52 | 135 | 3.0 | 7.0 | 0.00 | 0.00 | 0.00 | 84 | 1005.4 |
| 20260510031117 | 52 | 158 | 5.0 | 9.0 | 0.00 | 0.00 | 0.00 | 84 | 1005.4 |
| 20260510030617 | 52 | 135 | 3.0 | 4.0 | 0.00 | 0.00 | 0.00 | 84 | 1005.5 |
| 20260510030117 | 52 | 135 | 5.0 | 10.0 | 0.00 | 0.00 | 0.00 | 84 | 1005.7 |
| 20260510025638 | 52 | 158 | 4.0 | 9.0 | 0.00 | 0.00 | 0.00 | 83 | 1005.9 |
| 20260510025118 | 52 | 135 | 4.0 | 6.0 | 0.00 | 0.00 | 0.00 | 83 | 1006.0 |
| 20260510024617 | 52 | 113 | 4.0 | 8.0 | 0.00 | 0.00 | 0.00 | 83 | 1006.1 |
| 20260510024117 | 52 | 135 | 6.0 | 9.0 | 0.00 | 0.00 | 0.00 | 83 | 1006.1 |
| 20260510023617 | 52 | 158 | 2.0 | 6.0 | 0.00 | 0.00 | 0.00 | 82 | 1006.1 |
| 20260510023117 | 52 | 158 | 4.0 | 8.0 | 0.00 | 0.00 | 0.00 | 82 | 1006.0 |
| 20260510022617 | 52 | 135 | 6.0 | 16.0 | 0.00 | 0.00 | 0.00 | 82 | 1006.2 |
| 20260510022118 | 52 | 135 | 6.0 | 11.0 | 0.00 | 0.00 | 0.00 | 82 | 1006.3 |
| 20260510021617 | 52 | 158 | 5.0 | 9.0 | 0.00 | 0.00 | 0.00 | 81 | 1006.4 |
| 20260510021117 | 52 | 158 | 3.0 | 5.0 | 0.00 | 0.00 | 0.00 | 81 | 1006.4 |
| 20260510020617 | 52 | 203 | 3.0 | 5.0 | 0.00 | 0.00 | 0.00 | 81 | 1006.4 |
| 20260510020117 | 52 | 158 | 4.0 | 8.0 | 0.00 | 0.00 | 0.00 | 81 | 1006.4 |
| 20260510015617 | 53 | 135 | 6.0 | 12.0 | 0.00 | 0.00 | 0.00 | 80 | 1006.5 |
| 20260510015117 | 53 | 158 | 8.0 | 16.0 | 0.00 | 0.00 | 0.00 | 80 | 1006.5 |
| 20260510014617 | 53 | 158 | 6.0 | 11.0 | 0.00 | 0.00 | 0.00 | 80 | 1006.7 |
| 20260510014117 | 53 | 135 | 5.0 | 10.0 | 0.00 | 0.00 | 0.00 | 80 | 1006.8 |
| 20260510013617 | 53 | 180 | 5.0 | 10.0 | 0.00 | 0.00 | 0.00 | 79 | 1006.8 |
| 20260510013117 | 53 | 135 | 5.0 | 9.0 | 0.00 | 0.00 | 0.00 | 79 | 1006.6 |
| 20260510012617 | 53 | 135 | 5.0 | 9.0 | 0.00 | 0.00 | 0.00 | 79 | 1006.5 |
| 20260510012118 | 53 | 135 | 6.0 | 12.0 | 0.00 | 0.00 | 0.00 | 78 | 1006.6 |
| 20260510011617 | 53 | 135 | 5.0 | 10.0 | 0.00 | 0.00 | 0.00 | 78 | 1006.6 |
| 20260510011118 | 53 | 158 | 4.0 | 7.0 | 0.00 | 0.00 | 0.00 | 78 | 1006.6 |
| 20260510010637 | 53 | 135 | 6.0 | 9.0 | 0.00 | 0.00 | 0.00 | 78 | 1006.6 |
| 20260510010117 | 53 | 135 | 6.0 | 14.0 | 0.00 | 0.00 | 0.00 | 77 | 1006.4 |
| 20260510005617 | 54 | 158 | 6.0 | 10.0 | 0.00 | 0.00 | 0.00 | 77 | 1006.3 |
| 20260510005117 | 54 | 158 | 6.0 | 13.0 | 0.00 | 0.00 | 0.00 | 76 | 1006.4 |
| 20260510004617 | 54 | 113 | 6.0 | 11.0 | 0.00 | 0.00 | 0.00 | 76 | 1006.4 |
| 20260510004117 | 54 | 158 | 7.0 | 14.0 | 0.00 | 0.00 | 0.00 | 76 | 1006.4 |
| 20260510003617 | 54 | 113 | 6.0 | 12.0 | 0.00 | 0.00 | 0.00 | 75 | 1006.7 |
| 20260510003117 | 54 | 90 | 5.0 | 8.0 | 0.00 | 0.00 | 0.00 | 75 | 1006.5 |
| 20260510002617 | 54 | 135 | 6.0 | 12.0 | 0.00 | 0.00 | 0.00 | 75 | 1006.7 |
| 20260510002117 | 54 | 158 | 8.0 | 15.0 | 0.00 | 0.00 | 0.00 | 74 | 1006.5 |
| 20260510001617 | 54 | 135 | 7.0 | 13.0 | 0.00 | 0.00 | 0.00 | 74 | 1006.5 |
| 20260510001116 | 54 | 135 | 8.0 | 15.0 | 0.00 | 0.00 | 0.00 | 74 | 1006.5 |
| 20260510000617 | 54 | 135 | 7.0 | 11.0 | 0.00 | 0.00 | 0.00 | 73 | 1006.2 |
| 20260510000117 | 55 | 135 | 7.0 | 15.0 | 0.00 | 0.00 | 0.00 | 73 | 1006.1 |
| 20260509235117 | 55 | 135 | 8.0 | 14.0 | 0.00 | 0.00 | 0.00 | 72 | 1006.3 |
| 20260509234637 | 55 | 135 | 5.0 | 12.0 | 0.00 | 0.00 | 0.00 | 72 | 1006.3 |
| 20260509234117 | 55 | 135 | 5.0 | 13.0 | 0.00 | 0.00 | 0.00 | 72 | 1006.4 |
| 20260509233617 | 55 | 158 | 8.0 | 14.0 | 0.00 | 0.00 | 0.00 | 71 | 1006.4 |
| 20260509233117 | 55 | 135 | 7.0 | 12.0 | 0.00 | 0.00 | 0.00 | 71 | 1006.2 |
| 20260509232637 | 56 | 113 | 9.0 | 12.0 | 0.00 | 0.00 | 0.00 | 70 | 1006.3 |
| 20260509232117 | 56 | 113 | 8.0 | 14.0 | 0.00 | 0.00 | 0.00 | 69 | 1006.4 |
| 20260509231637 | 57 | 113 | 9.0 | 17.0 | 0.00 | 0.00 | 0.00 | 68 | 1006.5 |
| 20260509231116 | 57 | 135 | 8.0 | 14.0 | 0.00 | 0.00 | 0.00 | 67 | 1006.4 |
| 20260509230617 | 57 | 135 | 4.0 | 9.0 | 0.00 | 0.00 | 0.00 | 66 | 1006.5 |
| 20260509230117 | 57 | 158 | 7.0 | 14.0 | 0.00 | 0.00 | 0.00 | 66 | 1006.5 |
| 20260509225617 | 58 | 158 | 6.0 | 9.0 | 0.00 | 0.00 | 0.00 | 65 | 1006.6 |
| 20260509225116 | 58 | 180 | 5.0 | 10.0 | 0.00 | 0.00 | 0.00 | 65 | 1006.8 |
| 20260509224657 | 58 | 135 | 6.0 | 9.0 | 0.00 | 0.00 | 0.00 | 65 | 1006.9 |
| 20260509224117 | 58 | 135 | 7.0 | 12.0 | 0.00 | 0.00 | 0.00 | 65 | 1006.8 |
| 20260509223637 | 58 | 135 | 7.0 | 12.0 | 0.00 | 0.00 | 0.00 | 64 | 1006.8 |
| 20260509223117 | 58 | 135 | 10.0 | 16.0 | 0.00 | 0.00 | 0.00 | 63 | 1006.8 |
| 20260509222617 | 58 | 158 | 8.0 | 15.0 | 0.00 | 0.00 | 0.00 | 63 | 1006.9 |
| 20260509222117 | 58 | 135 | 4.0 | 7.0 | 0.00 | 0.00 | 0.00 | 63 | 1007.0 |
| 20260509221617 | 58 | 113 | 7.0 | 11.0 | 0.00 | 0.00 | 0.00 | 63 | 1006.9 |
| 20260509221117 | 59 | 158 | 7.0 | 14.0 | 0.00 | 0.00 | 0.00 | 62 | 1006.9 |
| 20260509220616 | 59 | 158 | 7.0 | 13.0 | 0.00 | 0.00 | 0.00 | 60 | 1006.8 |
| 20260509220116 | 59 | 113 | 9.0 | 14.0 | 0.00 | 0.00 | 0.00 | 60 | 1006.7 |
| 20260509215617 | 60 | 135 | 12.0 | 20.0 | 0.00 | 0.00 | 0.00 | 58 | 1006.5 |
| 20260509215117 | 60 | 158 | 8.0 | 18.0 | 0.00 | 0.00 | 0.00 | 58 | 1006.5 |
| 20260509214616 | 60 | 135 | 10.0 | 14.0 | 0.00 | 0.00 | 0.00 | 57 | 1006.6 |
| 20260509214117 | 60 | 158 | 7.0 | 17.0 | 0.00 | 0.00 | 0.00 | 56 | 1006.6 |
| 20260509213617 | 60 | 135 | 9.0 | 14.0 | 0.00 | 0.00 | 0.00 | 55 | 1006.7 |
| 20260509213136 | 61 | 135 | 11.0 | 17.0 | 0.00 | 0.00 | 0.00 | 54 | 1006.8 |
| 20260509212617 | 61 | 135 | 10.0 | 16.0 | 0.00 | 0.00 | 0.00 | 53 | 1006.8 |
| 20260509212117 | 61 | 158 | 8.0 | 14.0 | 0.00 | 0.00 | 0.00 | 52 | 1006.9 |
| 20260509211616 | 62 | 113 | 11.0 | 19.0 | 0.00 | 0.00 | 0.00 | 50 | 1007.2 |
| 20260509211117 | 62 | 158 | 7.0 | 11.0 | 0.00 | 0.00 | 0.00 | 49 | 1007.0 |
| 20260509210617 | 63 | 135 | 9.0 | 15.0 | 0.00 | 0.00 | 0.00 | 47 | 1006.9 |
| 20260509210116 | 63 | 135 | 6.0 | 11.0 | 0.00 | 0.00 | 0.00 | 45 | 1006.8 |
| 20260509205616 | 63 | 158 | 4.0 | 9.0 | 0.00 | 0.00 | 0.00 | 46 | 1006.8 |
| 20260509205116 | 63 | 113 | 6.0 | 11.0 | 0.00 | 0.00 | 0.00 | 44 | 1006.9 |
| 20260509204617 | 63 | 203 | 7.0 | 20.0 | 0.00 | 0.00 | 0.00 | 45 | 1006.8 |
| 20260509204117 | 63 | 158 | 7.0 | 12.0 | 0.00 | 0.00 | 0.00 | 43 | 1006.8 |
| 20260509203616 | 64 | 113 | 11.0 | 18.0 | 0.00 | 0.00 | 0.00 | 40 | 1006.9 |
| 20260509203117 | 64 | 180 | 7.0 | 13.0 | 0.00 | 0.00 | 0.00 | 39 | 1006.9 |
| 20260509202616 | 64 | 203 | 5.0 | 8.0 | 0.00 | 0.00 | 0.00 | 39 | 1007.0 |
| 20260509202116 | 64 | 135 | 9.0 | 13.0 | 0.00 | 0.00 | 0.00 | 37 | 1007.1 |
| 20260509201617 | 64 | 135 | 9.0 | 18.0 | 0.00 | 0.00 | 0.00 | 36 | 1007.1 |
| 20260509201116 | 64 | 158 | 9.0 | 15.0 | 0.00 | 0.00 | 0.00 | 36 | 1007.2 |
| 20260509200616 | 64 | 180 | 5.0 | 9.0 | 0.00 | 0.00 | 0.00 | 35 | 1007.2 |
| 20260509200117 | 64 | 158 | 8.0 | 15.0 | 0.00 | 0.00 | 0.00 | 35 | 1007.3 |
| 20260509195616 | 65 | 180 | 6.0 | 12.0 | 0.00 | 0.00 | 0.00 | 34 | 1007.3 |
| 20260509195136 | 66 | 135 | 7.0 | 10.0 | 0.00 | 0.00 | 0.00 | 33 | 1007.2 |
| 20260509194616 | 65 | 225 | 3.0 | 4.0 | 0.00 | 0.00 | 0.00 | 35 | 1007.3 |
| 20260509194116 | 65 | 158 | 7.0 | 14.0 | 0.00 | 0.00 | 0.00 | 35 | 1007.4 |
| 20260509193616 | 65 | 203 | 10.0 | 21.0 | 0.00 | 0.00 | 0.00 | 34 | 1007.4 |
| 20260509193117 | 65 | 113 | 6.0 | 12.0 | 0.00 | 0.00 | 0.00 | 34 | 1007.4 |
| 20260509192616 | 65 | 135 | 6.0 | 10.0 | 0.00 | 0.00 | 0.00 | 34 | 1007.4 |
| 20260509192117 | 65 | 158 | 6.0 | 10.0 | 0.00 | 0.00 | 0.00 | 32 | 1007.6 |
| 20260509191616 | 65 | 180 | 6.0 | 11.0 | 0.00 | 0.00 | 0.00 | 32 | 1007.6 |
| 20260509191116 | 65 | 135 | 7.0 | 11.0 | 0.00 | 0.00 | 0.00 | 31 | 1007.6 |
| 20260509190616 | 65 | 135 | 6.0 | 14.0 | 0.00 | 0.00 | 0.00 | 32 | 1007.8 |
| 20260509190117 | 65 | 135 | 5.0 | 13.0 | 0.00 | 0.00 | 0.00 | 31 | 1007.8 |
| 20260509185616 | 65 | 180 | 4.0 | 10.0 | 0.00 | 0.00 | 0.00 | 31 | 1007.8 |
| 20260509185116 | 65 | 113 | 9.0 | 15.0 | 0.00 | 0.00 | 0.00 | 31 | 1007.8 |
| 20260509184616 | 65 | 135 | 8.0 | 12.0 | 0.00 | 0.00 | 0.00 | 31 | 1007.8 |
| 20260509184117 | 65 | 135 | 9.0 | 13.0 | 0.00 | 0.00 | 0.00 | 30 | 1008.0 |
| 20260509183616 | 65 | 180 | 6.0 | 10.0 | 0.00 | 0.00 | 0.00 | 28 | 1008.0 |
| 20260509183116 | 65 | 158 | 8.0 | 14.0 | 0.00 | 0.00 | 0.00 | 26 | 1008.0 |
| 20260509182616 | 66 | 158 | 6.0 | 9.0 | 0.00 | 0.00 | 0.00 | 26 | 1007.9 |
| 20260509182116 | 66 | 135 | 6.0 | 11.0 | 0.00 | 0.00 | 0.00 | 27 | 1008.1 |
| 20260509181636 | 65 | 203 | 6.0 | 10.0 | 0.00 | 0.00 | 0.00 | 27 | 1008.1 |
| 20260509181116 | 65 | 158 | 4.0 | 9.0 | 0.00 | 0.00 | 0.00 | 27 | 1008.3 |
| 20260509180636 | 65 | 158 | 6.0 | 10.0 | 0.00 | 0.00 | 0.00 | 26 | 1008.4 |
| 20260509180116 | 64 | 135 | 5.0 | 10.0 | 0.00 | 0.00 | 0.00 | 27 | 1008.2 |
| 20260509175616 | 65 | 113 | 8.0 | 15.0 | 0.00 | 0.00 | 0.00 | 26 | 1008.3 |
| 20260509175136 | 65 | 135 | 7.0 | 13.0 | 0.00 | 0.00 | 0.00 | 27 | 1008.5 |
| 20260509174616 | 65 | 158 | 6.0 | 18.0 | 0.00 | 0.00 | 0.00 | 26 | 1008.6 |
| 20260509174116 | 65 | 113 | 8.0 | 13.0 | 0.00 | 0.00 | 0.00 | 26 | 1008.8 |
| 20260509173616 | 65 | 158 | 3.0 | 5.0 | 0.00 | 0.00 | 0.00 | 27 | 1008.9 |
| 20260509173136 | 65 | 135 | 4.0 | 7.0 | 0.00 | 0.00 | 0.00 | 28 | 1008.9 |
| 20260509172615 | 65 | 135 | 8.0 | 10.0 | 0.00 | 0.00 | 0.00 | 28 | 1009.0 |
| 20260509172116 | 64 | 203 | 5.0 | 12.0 | 0.00 | 0.00 | 0.00 | 28 | 1008.9 |
| 20260509171616 | 64 | 158 | 5.0 | 10.0 | 0.00 | 0.00 | 0.00 | 28 | 1009.0 |
| 20260509171116 | 64 | 135 | 9.0 | 16.0 | 0.00 | 0.00 | 0.00 | 28 | 1009.1 |
| 20260509170616 | 64 | 158 | 6.0 | 13.0 | 0.00 | 0.00 | 0.00 | 29 | 1009.1 |
| 20260509170116 | 64 | 135 | 7.0 | 14.0 | 0.00 | 0.00 | 0.00 | 29 | 1009.3 |
| 20260509165615 | 64 | 180 | 7.0 | 14.0 | 0.00 | 0.00 | 0.00 | 28 | 1009.4 |
| 20260509165136 | 64 | 158 | 6.0 | 11.0 | 0.00 | 0.00 | 0.00 | 28 | 1009.5 |
| 20260509164616 | 64 | 203 | 6.0 | 10.0 | 0.00 | 0.00 | 0.00 | 28 | 1009.6 |
| 20260509164116 | 64 | 135 | 5.0 | 7.0 | 0.00 | 0.00 | 0.00 | 29 | 1009.7 |
| 20260509163615 | 64 | 113 | 6.0 | 10.0 | 0.00 | 0.00 | 0.00 | 29 | 1009.7 |
| 20260509163118 | 64 | 135 | 7.0 | 16.0 | 0.00 | 0.00 | 0.00 | 29 | 1009.7 |
| 20260509162618 | 64 | 135 | 6.0 | 11.0 | 0.00 | 0.00 | 0.00 | 29 | 1009.9 |
| 20260509162118 | 64 | 113 | 7.0 | 10.0 | 0.00 | 0.00 | 0.00 | 30 | 1009.9 |
| 20260509161618 | 64 | 158 | 4.0 | 6.0 | 0.00 | 0.00 | 0.00 | 29 | 1010.0 |
| 20260509161118 | 64 | 158 | 4.0 | 7.0 | 0.00 | 0.00 | 0.00 | 30 | 1010.1 |
| 20260509160618 | 63 | 248 | 2.0 | 4.0 | 0.00 | 0.00 | 0.00 | 30 | 1010.2 |
| 20260509160118 | 63 | 113 | 3.0 | 7.0 | 0.00 | 0.00 | 0.00 | 32 | 1010.2 |
| 20260509155618 | 62 | 180 | 5.0 | 11.0 | 0.00 | 0.00 | 0.00 | 30 | 1010.3 |
| 20260509155138 | 62 | 203 | 6.0 | 12.0 | 0.00 | 0.00 | 0.00 | 31 | 1010.4 |
| 20260509154617 | 62 | 135 | 5.0 | 7.0 | 0.00 | 0.00 | 0.00 | 31 | 1010.5 |
| 20260509154118 | 61 | 180 | 2.0 | 5.0 | 0.00 | 0.00 | 0.00 | 32 | 1010.6 |
| 20260509153637 | 62 | 180 | 9.0 | 15.0 | 0.00 | 0.00 | 0.00 | 33 | 1010.6 |
| 20260509153117 | 61 | 135 | 5.0 | 8.0 | 0.00 | 0.00 | 0.00 | 33 | 1010.7 |
| 20260509152637 | 61 | 113 | 6.0 | 10.0 | 0.00 | 0.00 | 0.00 | 35 | 1010.8 |
| 20260509152157 | 61 | 158 | 3.0 | 6.0 | 0.00 | 0.00 | 0.00 | 34 | 1010.8 |
| 20260509151617 | 61 | 135 | 9.0 | 13.0 | 0.00 | 0.00 | 0.00 | 33 | 1010.9 |
| 20260509151117 | 61 | 158 | 4.0 | 7.0 | 0.00 | 0.00 | 0.00 | 33 | 1010.8 |
| 20260509150617 | 60 | 135 | 4.0 | 7.0 | 0.00 | 0.00 | 0.00 | 36 | 1011.0 |
| 20260509150117 | 60 | 135 | 6.0 | 8.0 | 0.00 | 0.00 | 0.00 | 37 | 1010.9 |
| 20260509145618 | 60 | 158 | 6.0 | 10.0 | 0.00 | 0.00 | 0.00 | 36 | 1010.9 |
| 20260509145117 | 60 | 113 | 4.0 | 8.0 | 0.00 | 0.00 | 0.00 | 37 | 1011.0 |
| 20260509144617 | 60 | 135 | 5.0 | 10.0 | 0.00 | 0.00 | 0.00 | 38 | 1010.9 |
| 20260509144117 | 60 | 135 | 1.0 | 2.0 | 0.00 | 0.00 | 0.00 | 39 | 1010.9 |
| 20260509143617 | 60 | 135 | 5.0 | 7.0 | 0.00 | 0.00 | 0.00 | 38 | 1010.9 |
| 20260509143117 | 59 | 135 | 4.0 | 8.0 | 0.00 | 0.00 | 0.00 | 40 | 1011.0 |
| 20260509142617 | 58 | 135 | 4.0 | 7.0 | 0.00 | 0.00 | 0.00 | 41 | 1010.9 |
| 20260509142117 | 58 | 135 | 5.0 | 9.0 | 0.00 | 0.00 | 0.00 | 41 | 1011.0 |
| 20260509141638 | 58 | 113 | 6.0 | 8.0 | 0.00 | 0.00 | 0.00 | 42 | 1011.1 |
| 20260509141157 | 58 | 135 | 6.0 | 10.0 | 0.00 | 0.00 | 0.00 | 42 | 1011.1 |
| 20260509140617 | 57 | 158 | 2.0 | 5.0 | 0.00 | 0.00 | 0.00 | 43 | 1011.1 |
| 20260509140118 | 57 | 135 | 2.0 | 3.0 | 0.00 | 0.00 | 0.00 | 42 | 1011.2 |
| 20260509135637 | 57 | 113 | 5.0 | 11.0 | 0.00 | 0.00 | 0.00 | 42 | 1011.3 |
| 20260509135118 | 57 | 135 | 4.0 | 7.0 | 0.00 | 0.00 | 0.00 | 41 | 1011.4 |
| 20260509134617 | 57 | 158 | 3.0 | 5.0 | 0.00 | 0.00 | 0.00 | 42 | 1011.3 |
| 20260509134117 | 57 | 135 | 7.0 | 10.0 | 0.00 | 0.00 | 0.00 | 41 | 1011.4 |
| 20260509133638 | 57 | 135 | 2.0 | 4.0 | 0.00 | 0.00 | 0.00 | 43 | 1011.3 |
| 20260509133137 | 56 | 113 | 4.0 | 7.0 | 0.00 | 0.00 | 0.00 | 44 | 1011.5 |
| 20260509132617 | 56 | 180 | 2.0 | 3.0 | 0.00 | 0.00 | 0.00 | 45 | 1011.5 |
| 20260509132117 | 55 | 158 | 4.0 | 6.0 | 0.00 | 0.00 | 0.00 | 45 | 1011.4 |
| 20260509131617 | 54 | 158 | 2.0 | 5.0 | 0.00 | 0.00 | 0.00 | 46 | 1011.5 |
| 20260509131117 | 54 | 158 | 5.0 | 10.0 | 0.00 | 0.00 | 0.00 | 46 | 1011.5 |
| 20260509130618 | 54 | 135 | 4.0 | 8.0 | 0.00 | 0.00 | 0.00 | 46 | 1011.5 |
| 20260509130117 | 54 | 135 | 5.0 | 9.0 | 0.00 | 0.00 | 0.00 | 46 | 1011.5 |
| 20260509125617 | 54 | 135 | 3.0 | 7.0 | 0.00 | 0.00 | 0.00 | 45 | 1011.6 |
| 20260509125117 | 54 | 135 | 5.0 | 7.0 | 0.00 | 0.00 | 0.00 | 45 | 1011.6 |
| 20260509124617 | 54 | 90 | 3.0 | 5.0 | 0.00 | 0.00 | 0.00 | 45 | 1011.6 |
| 20260509124137 | 53 | 135 | 1.0 | 2.0 | 0.00 | 0.00 | 0.00 | 47 | 1011.7 |
| 20260509123637 | 53 | 113 | 2.0 | 4.0 | 0.00 | 0.00 | 0.00 | 48 | 1011.7 |
| 20260509123117 | 52 | 135 | 3.0 | 4.0 | 0.00 | 0.00 | 0.00 | 48 | 1011.8 |
| 20260509122637 | 51 | 158 | 2.0 | 4.0 | 0.00 | 0.00 | 0.00 | 49 | 1011.8 |
| 20260509122117 | 50 | 158 | 2.0 | 4.0 | 0.00 | 0.00 | 0.00 | 52 | 1011.9 |
| 20260509121637 | 50 | 0.0 | 2.0 | 0.00 | 0.00 | 0.00 | 52 | 1011.7 | |
| 20260509121117 | 49 | 180 | 2.0 | 5.0 | 0.00 | 0.00 | 0.00 | 53 | 1011.7 |
| 20260509120617 | 48 | 0.0 | 1.0 | 0.00 | 0.00 | 0.00 | 54 | 1011.7 | |
| 20260509120117 | 48 | 203 | 2.0 | 4.0 | 0.00 | 0.00 | 0.00 | 55 | 1011.8 |
| 20260509115617 | 47 | 180 | 1.0 | 2.0 | 0.00 | 0.00 | 0.00 | 56 | 1011.7 |
| 20260509115117 | 47 | 203 | 1.0 | 2.0 | 0.00 | 0.00 | 0.00 | 56 | 1011.8 |
| 20260509114637 | 47 | 158 | 2.0 | 4.0 | 0.00 | 0.00 | 0.00 | 56 | 1011.7 |
| 20260509114118 | 47 | 180 | 1.0 | 2.0 | 0.00 | 0.00 | 0.00 | 57 | 1011.8 |
| 20260509113616 | 46 | 158 | 1.0 | 2.0 | 0.00 | 0.00 | 0.00 | 57 | 1011.9 |
| 20260509113117 | 46 | 135 | 3.0 | 5.0 | 0.00 | 0.00 | 0.00 | 57 | 1011.9 |
| 20260509112617 | 46 | 158 | 1.0 | 3.0 | 0.00 | 0.00 | 0.00 | 58 | 1011.8 |
| 20260509112117 | 46 | 135 | 3.0 | 5.0 | 0.00 | 0.00 | 0.00 | 58 | 1011.8 |
| 20260509111617 | 46 | 113 | 2.0 | 4.0 | 0.00 | 0.00 | 0.00 | 59 | 1011.9 |
| 20260509111117 | 45 | 158 | 2.0 | 3.0 | 0.00 | 0.00 | 0.00 | 59 | 1011.8 |
| 20260509110616 | 45 | 203 | 2.0 | 2.0 | 0.00 | 0.00 | 0.00 | 60 | 1011.9 |
| 20260509110118 | 44 | 203 | 3.0 | 5.0 | 0.00 | 0.00 | 0.00 | 61 | 1012.0 |
| 20260509105617 | 44 | 158 | 1.0 | 2.0 | 0.00 | 0.00 | 0.00 | 62 | 1011.9 |
| 20260509105117 | 43 | 225 | 2.0 | 3.0 | 0.00 | 0.00 | 0.00 | 63 | 1011.9 |
| 20260509104617 | 43 | 225 | 1.0 | 2.0 | 0.00 | 0.00 | 0.00 | 63 | 1011.9 |
| 20260509104116 | 43 | 0.0 | 1.0 | 0.00 | 0.00 | 0.00 | 64 | 1011.8 | |
| 20260509103657 | 42 | 180 | 2.0 | 4.0 | 0.00 | 0.00 | 0.00 | 65 | 1011.7 |
| 20260509103117 | 42 | 225 | 2.0 | 3.0 | 0.00 | 0.00 | 0.00 | 66 | 1011.7 |
| 20260509102617 | 42 | 203 | 3.0 | 4.0 | 0.00 | 0.00 | 0.00 | 66 | 1011.6 |
| 20260509102117 | 41 | 158 | 1.0 | 2.0 | 0.00 | 0.00 | 0.00 | 65 | 1011.6 |
| 20260509101617 | 41 | 0.0 | 1.0 | 0.00 | 0.00 | 0.00 | 65 | 1011.5 | |
| 20260509101117 | 41 | 0.0 | 1.0 | 0.00 | 0.00 | 0.00 | 65 | 1011.4 | |
| 20260509100617 | 41 | 0.0 | 1.0 | 0.00 | 0.00 | 0.00 | 65 | 1011.4 | |
| 20260509100116 | 42 | 0.0 | 0.0 | 0.00 | 0.00 | 0.00 | 65 | 1011.4 | |
| 20260509095617 | 41 | 0.0 | 1.0 | 0.00 | 0.00 | 0.00 | 65 | 1011.4 | |
| 20260509095116 | 42 | 0.0 | 0.0 | 0.00 | 0.00 | 0.00 | 65 | 1011.5 |